FTU5084 ZUGH-ZHLY

Flight info

Callsign FTU5084
Flight time N/A
Altitude 14800
Route GHN DCT JTG DCT GURET W233 AGULU W81 APIMI W275 NSH W281 SUDGO W4 OMLIX DCT LYA
Aircraft MA60/M-SDFGIRY/S

Departure

Time N/A
Airport Guanghan Airport (ZUGH)

Arrival

Time 2026-05-07 13:55
Airport Luoyang Beijiao Airport (ZHLY)
Time Latitude Longitude Altitude Speed Heading
2026-05-07 13:21 33.66113 110.58822 14996 ft 279 kts 24°
2026-05-07 13:21 33.67860 110.59823 14987 ft 279 kts 24°
2026-05-07 13:21 33.69611 110.60825 14990 ft 278 kts 24°
2026-05-07 13:22 33.71358 110.61829 14993 ft 278 kts 24°
2026-05-07 13:22 33.73082 110.62816 14992 ft 278 kts 24°
2026-05-07 13:22 33.74831 110.63819 14988 ft 279 kts 24°
2026-05-07 13:22 33.76576 110.64825 14993 ft 278 kts 24°
2026-05-07 13:23 33.78321 110.65824 14994 ft 278 kts 24°
2026-05-07 13:23 33.80065 110.66826 14997 ft 278 kts 24°
2026-05-07 13:23 33.81809 110.67827 14998 ft 278 kts 24°
2026-05-07 13:23 33.83550 110.68827 14991 ft 277 kts 24°
2026-05-07 13:24 33.85290 110.69830 15004 ft 277 kts 24°
2026-05-07 13:24 33.87030 110.70830 14999 ft 277 kts 24°
2026-05-07 13:24 33.88771 110.71835 15006 ft 278 kts 24°
2026-05-07 13:24 33.90514 110.72837 15004 ft 278 kts 24°
2026-05-07 13:25 33.92257 110.73841 15002 ft 278 kts 24°
2026-05-07 13:25 33.94000 110.74847 15002 ft 278 kts 24°
2026-05-07 13:25 33.95745 110.75853 15001 ft 278 kts 24°
2026-05-07 13:25 33.97491 110.76860 15004 ft 277 kts 24°
2026-05-07 13:26 33.99234 110.77868 15003 ft 277 kts 24°
2026-05-07 13:26 34.00971 110.78870 15005 ft 277 kts 24°
2026-05-07 13:26 34.02714 110.79878 15008 ft 277 kts 24°
2026-05-07 13:26 34.04455 110.80887 15006 ft 277 kts 24°
2026-05-07 13:27 34.06194 110.81890 15000 ft 277 kts 24°
2026-05-07 13:27 34.07934 110.82898 15006 ft 277 kts 24°
2026-05-07 13:27 34.09674 110.83904 15007 ft 277 kts 24°
2026-05-07 13:27 34.11417 110.84913 15004 ft 277 kts 24°
2026-05-07 13:28 34.13156 110.85921 15005 ft 277 kts 24°
2026-05-07 13:28 34.14896 110.86929 14997 ft 277 kts 24°
2026-05-07 13:28 34.16612 110.87926 15002 ft 277 kts 24°
2026-05-07 13:28 34.18345 110.88939 15010 ft 276 kts 25°
2026-05-07 13:29 34.20074 110.89966 15006 ft 277 kts 21°
2026-05-07 13:29 34.21802 110.90928 15002 ft 271 kts 22°
2026-05-07 13:29 34.23488 110.91924 15003 ft 271 kts 25°
2026-05-07 13:29 34.25173 110.92975 15006 ft 273 kts 25°
2026-05-07 13:30 34.26894 110.93993 14883 ft 277 kts 24°
2026-05-07 13:30 34.28623 110.94988 14660 ft 274 kts 24°
2026-05-07 13:30 34.30338 110.95980 14427 ft 273 kts 24°
2026-05-07 13:30 34.32048 110.96974 14197 ft 272 kts 24°
2026-05-07 13:31 34.33751 110.97967 13961 ft 271 kts 24°
2026-05-07 13:31 34.35451 110.98956 13697 ft 271 kts 24°
2026-05-07 13:31 34.37146 110.99944 13485 ft 269 kts 24°
2026-05-07 13:31 34.38821 111.00925 13332 ft 266 kts 24°
2026-05-07 13:32 34.40477 111.01894 13180 ft 263 kts 24°
2026-05-07 13:32 34.42121 111.02853 13003 ft 261 kts 24°
2026-05-07 13:32 34.43559 111.04146 12824 ft 262 kts 49°
2026-05-07 13:32 34.44542 111.05981 12642 ft 264 kts 57°
2026-05-07 13:33 34.45435 111.07922 12456 ft 264 kts 58°
2026-05-07 13:33 34.46325 111.09861 12284 ft 263 kts 58°
2026-05-07 13:33 34.47250 111.11766 12119 ft 262 kts 56°
2026-05-07 13:33 34.48206 111.13643 11933 ft 261 kts 55°
2026-05-07 13:34 34.49157 111.15506 11769 ft 260 kts 56°
2026-05-07 13:34 34.51046 111.19234 11431 ft 259 kts 56°
2026-05-07 13:34 34.51989 111.21097 11255 ft 259 kts 56°
2026-05-07 13:35 34.52931 111.22957 11091 ft 259 kts 56°
2026-05-07 13:35 34.53872 111.24815 10917 ft 258 kts 56°
2026-05-07 13:35 34.54809 111.26670 10749 ft 258 kts 56°
2026-05-07 13:35 34.55744 111.28522 10586 ft 257 kts 56°
2026-05-07 13:36 34.56680 111.30374 10418 ft 256 kts 56°
2026-05-07 13:36 34.57612 111.32217 10243 ft 256 kts 56°
2026-05-07 13:36 34.58540 111.34055 10088 ft 255 kts 56°
2026-05-07 13:36 34.59464 111.35887 9899 ft 254 kts 56°
2026-05-07 13:37 34.60386 111.37718 9722 ft 254 kts 56°
2026-05-07 13:37 34.61000 111.38929 9613 ft 255 kts 56°
2026-05-07 13:37 34.61926 111.40769 9432 ft 255 kts 56°
2026-05-07 13:37 34.63164 111.43230 9171 ft 255 kts 56°
2026-05-07 13:38 34.64076 111.45045 8998 ft 254 kts 56°
2026-05-07 13:38 34.64998 111.46877 8807 ft 254 kts 56°
2026-05-07 13:38 34.65621 111.48117 8695 ft 254 kts 56°
2026-05-07 13:38 34.66542 111.49946 8513 ft 254 kts 56°
2026-05-07 13:39 34.67761 111.52374 8276 ft 254 kts 56°
2026-05-07 13:39 34.68383 111.53609 8163 ft 254 kts 56°
2026-05-07 13:39 34.69300 111.55441 8012 ft 253 kts 57°
2026-05-07 13:39 34.70201 111.57238 7898 ft 251 kts 56°
2026-05-07 13:40 34.71122 111.59075 7777 ft 251 kts 56°
2026-05-07 13:40 34.72018 111.60863 7658 ft 251 kts 56°
2026-05-07 13:40 34.72925 111.62678 7535 ft 251 kts 56°
2026-05-07 13:40 34.73832 111.64492 7408 ft 251 kts 57°
2026-05-07 13:41 34.74746 111.66305 7283 ft 251 kts 57°
2026-05-07 13:41 34.75662 111.68111 7169 ft 251 kts 56°
2026-05-07 13:41 34.76583 111.69919 7051 ft 252 kts 56°
2026-05-07 13:41 34.77506 111.71728 6931 ft 251 kts 56°
2026-05-07 13:42 34.78418 111.73543 6806 ft 252 kts 56°
2026-05-07 13:42 34.79328 111.75365 6686 ft 252 kts 56°
2026-05-07 13:42 34.80234 111.77189 6561 ft 252 kts 56°
2026-05-07 13:42 34.81146 111.79013 6442 ft 253 kts 57°
2026-05-07 13:43 34.82054 111.80844 6315 ft 253 kts 57°
2026-05-07 13:43 34.82961 111.82671 6178 ft 252 kts 56°
2026-05-07 13:43 34.83867 111.84493 6051 ft 252 kts 57°
2026-05-07 13:43 34.84779 111.86318 5929 ft 252 kts 57°
2026-05-07 13:44 34.85690 111.88141 5827 ft 253 kts 57°
2026-05-07 13:44 34.86604 111.89973 5702 ft 253 kts 58°
2026-05-07 13:44 34.87268 111.91923 5570 ft 252 kts 82°
2026-05-07 13:44 34.87150 111.94051 5447 ft 254 kts 100°
2026-05-07 13:45 34.86755 111.96155 5319 ft 255 kts 104°
2026-05-07 13:45 34.86318 111.98240 5201 ft 251 kts 105°
2026-05-07 13:45 34.85895 112.00267 5084 ft 243 kts 104°
2026-05-07 13:45 34.85521 112.02246 4976 ft 236 kts 103°
2026-05-07 13:46 34.85176 112.04166 4936 ft 229 kts 103°
2026-05-07 13:46 34.84848 112.06032 4909 ft 222 kts 103°
2026-05-07 13:46 34.84534 112.07841 4908 ft 216 kts 103°
2026-05-07 13:46 34.84233 112.09593 4912 ft 212 kts 104°
2026-05-07 13:47 34.83523 112.11105 4910 ft 208 kts 141°
2026-05-07 13:47 34.82189 112.11676 4902 ft 208 kts 181°
2026-05-07 13:47 34.80818 112.11151 4898 ft 208 kts 204°
2026-05-07 13:47 34.79495 112.10405 4899 ft 211 kts 203°
2026-05-07 13:48 34.78136 112.09734 4874 ft 209 kts 200°
2026-05-07 13:48 34.76751 112.09261 4643 ft 200 kts 187°
2026-05-07 13:48 34.75411 112.09111 4573 ft 189 kts 181°
2026-05-07 13:48 34.74097 112.09059 4358 ft 186 kts 177°
2026-05-07 13:49 34.72941 112.09594 4122 ft 178 kts 137°
2026-05-07 13:49 34.72107 112.10668 3903 ft 170 kts 129°
2026-05-07 13:49 34.71392 112.11759 3732 ft 159 kts 126°
2026-05-07 13:49 34.70757 112.12787 3657 ft 146 kts 126°
2026-05-07 13:50 34.70261 112.13872 3630 ft 150 kts 98°
2026-05-07 13:50 34.70407 112.15145 3453 ft 161 kts 80°
2026-05-07 13:50 34.70673 112.16503 3226 ft 167 kts 79°
2026-05-07 13:50 34.70922 112.17830 3011 ft 156 kts 79°
2026-05-07 13:51 34.71154 112.19120 2907 ft 161 kts 79°
2026-05-07 13:51 34.71327 112.20457 2847 ft 156 kts 86°
2026-05-07 13:51 34.71415 112.21733 2817 ft 147 kts 88°
2026-05-07 13:51 34.71431 112.22980 2770 ft 148 kts 91°
2026-05-07 13:52 34.71390 112.24197 2752 ft 133 kts 89°
2026-05-07 13:52 34.71474 112.25232 2766 ft 120 kts 84°
2026-05-07 13:52 34.71602 112.26229 2702 ft 121 kts 82°
2026-05-07 13:52 34.71747 112.27248 2540 ft 124 kts 80°
2026-05-07 13:53 34.71948 112.28279 2361 ft 127 kts 76°
2026-05-07 13:53 34.72183 112.29319 2182 ft 128 kts 76°
2026-05-07 13:53 34.72391 112.30305 1979 ft 115 kts 77°
2026-05-07 13:53 34.72573 112.31229 1812 ft 112 kts 76°
2026-05-07 13:54 34.72772 112.32158 1634 ft 118 kts 75°
2026-05-07 13:54 34.72966 112.33094 1453 ft 110 kts 76°
2026-05-07 13:54 34.73143 112.33996 1316 ft 110 kts 76°
2026-05-07 13:54 34.73329 112.34893 1252 ft 110 kts 77°
2026-05-07 13:55 34.73521 112.35832 1226 ft 119 kts 75°
2026-05-07 13:55 34.73709 112.36782 1035 ft 109 kts 75°
2026-05-07 13:55 34.73886 112.37630 873 ft 95 kts 72°
2026-05-07 13:55 34.74023 112.38247 855 ft 36 kts 80°
2026-05-07 13:56 34.74056 112.38445 855 ft 19 kts 77°
2026-05-07 13:56 34.74094 112.38631 857 ft 38 kts 73°
2026-05-07 13:56 34.74150 112.38899 858 ft 28 kts 76°
2026-05-07 13:56 34.74189 112.39087 866 ft 18 kts 75°
2026-05-07 13:57 34.74210 112.39197 867 ft 9 kts 77°
2026-05-07 13:57 34.74215 112.39301 868 ft 10 kts 133°
2026-05-07 13:57 34.74160 112.39331 868 ft 9 kts 168°
2026-05-07 13:57 34.74092 112.39342 868 ft 10 kts 198°
2026-05-07 13:58 34.74056 112.39248 867 ft 15 kts 256°
2026-05-07 13:58 34.74030 112.39114 864 ft 18 kts 259°
2026-05-07 13:58 34.74001 112.38965 851 ft 18 kts 248°
2026-05-07 13:58 34.73967 112.38817 864 ft 19 kts 256°
2026-05-07 13:59 34.73935 112.38661 861 ft 19 kts 256°
2026-05-07 13:59 34.73900 112.38501 855 ft 19 kts 245°
2026-05-07 13:59 34.73798 112.38480 862 ft 14 kts 169°
2026-05-07 13:59 34.73725 112.38411 861 ft 15 kts 204°
2026-05-07 14:00 34.73717 112.38408 861 ft 0 kts 164°